Location: Arrodets-la-Barthe
(43.0306°N, 0.2829°E)
Time: 13:55:16
(UTC+00:00)

BlueWalker 3 - Pass Details

Date: 13 December 2022
Orbit: 499 x 517 km, 53.2° (Epoch: 04 February)

Event Time Altitude Azimuth Distance (km) Brightness Sun altitude
Rises 17:34:25 0° 301° (WNW) 2,626 6.2 -12.3°
Reaches altitude 10° 17:36:43 10° 293° (WNW) 1,733 5.4 -12.7°
Maximum altitude 17:40:22 38° 225° (SW) 792 3.5 -13.4°
Drops below altitude 10° 17:43:58 10° 156° (SSE) 1,711 4.6 -14.0°
Sets 17:46:13 0° 148° (SSE) 2,587 5.4 -14.4°
